Time,TemperatureF,DewpointF,PressureIn,WindDirection,WindDirectionDegrees,WindSpeedMPH,WindSpeedGustMPH,Humidity,HourlyPrecipIn,Conditions,Clouds,dailyrainin,SoftwareType,DateUTC
2013-10-05 07:43:00,50.2,22.9,17.72,NW,310,3.6,3.6,34,0.00,,,1.06,VWS V14.01,2013-10-05 12:43:00,
2013-10-05 07:48:00,50.0,22.0,17.72,SSW,200,4.9,6.3,33,0.00,,,0.00,VWS V14.01,2013-10-05 12:48:00,
2013-10-05 07:53:00,49.8,21.9,17.72,WNW,300,5.8,6.3,33,0.00,,,0.00,VWS V14.01,2013-10-05 12:53:00,
2013-10-05 07:58:00,49.5,20.9,17.72,NW,311,4.9,5.8,32,0.00,,,0.00,VWS V14.01,2013-10-05 12:58:00,
2013-10-05 08:03:00,49.3,20.7,17.72,West,259,2.7,5.4,32,0.00,,,0.00,VWS V14.01,2013-10-05 13:03:00,
2013-10-05 08:08:00,49.1,19.8,17.72,West,279,3.1,5.8,31,0.00,,,0.00,VWS V14.01,2013-10-05 13:08:00,
2013-10-05 08:13:00,48.9,19.6,17.72,West,275,5.8,5.8,31,0.00,,,1.06,VWS V14.01,2013-10-05 13:13:00,
2013-10-05 08:18:00,48.7,19.5,17.72,West,262,2.7,5.8,31,0.00,,,0.00,VWS V14.01,2013-10-05 13:18:00,
2013-10-05 08:23:00,48.7,19.5,17.72,WNW,288,3.6,6.3,31,0.00,,,0.00,VWS V14.01,2013-10-05 13:23:00,
2013-10-05 08:28:00,48.6,19.3,17.72,NNW,332,0.0,4.9,31,0.00,,,0.00,VWS V14.01,2013-10-05 13:28:00,
2013-10-05 08:33:00,48.6,20.1,17.72,West,275,3.1,4.0,32,0.00,,,0.00,VWS V14.01,2013-10-05 13:33:00,
2013-10-05 08:38:00,48.4,19.2,17.72,WNW,299,0.0,4.0,31,0.00,,,0.00,VWS V14.01,2013-10-05 13:38:00,
2013-10-05 08:43:00,48.2,19.7,17.72,WNW,297,0.0,3.1,32,0.00,,,1.06,VWS V14.01,2013-10-05 13:43:00,
2013-10-05 08:48:00,48.2,19.7,17.72,North,11,2.2,3.6,32,0.00,,,1.06,VWS V14.01,2013-10-05 13:48:00,
2013-10-05 08:53:00,48.2,20.5,17.72,NW,307,0.0,6.3,33,0.00,,,0.00,VWS V14.01,2013-10-05 13:53:00,
2013-10-05 08:58:00,48.0,20.3,17.72,WSW,247,2.7,6.3,33,0.00,,,0.00,VWS V14.01,2013-10-05 13:58:00,
2013-10-05 09:03:00,47.8,20.1,17.72,West,279,0.0,4.9,33,0.00,,,0.00,VWS V14.01,2013-10-05 14:03:00,
2013-10-05 09:08:00,47.8,19.4,17.72,SSE,166,2.7,4.9,32,0.00,,,0.00,VWS V14.01,2013-10-05 14:08:00,
2013-10-05 09:13:00,48.2,19.7,17.72,North,10,0.0,5.4,32,0.00,,,0.00,VWS V14.01,2013-10-05 14:13:00,
2013-10-05 09:18:00,48.6,20.1,17.72,NNW,327,0.0,4.0,32,0.00,,,0.00,VWS V14.01,2013-10-05 14:18:00,
2013-10-05 09:23:00,49.3,21.4,17.72,South,190,0.0,3.6,33,0.00,,,0.00,VWS V14.01,2013-10-05 14:23:00,
2013-10-05 09:28:00,49.6,21.0,17.72,SSW,200,2.7,5.8,32,0.00,,,0.00,VWS V14.01,2013-10-05 14:28:00,
2013-10-05 09:33:00,49.8,20.4,17.72,WSW,257,0.0,5.8,31,0.00,,,0.00,VWS V14.01,2013-10-05 14:33:00,
2013-10-05 09:38:00,50.2,20.7,17.72,North,353,0.0,0.0,31,0.00,,,0.00,VWS V14.01,2013-10-05 14:38:00,
2013-10-05 09:43:00,50.5,21.0,17.72,WNW,292,0.0,3.6,31,0.00,,,0.00,VWS V14.01,2013-10-05 14:43:00,
2013-10-05 09:48:00,50.7,20.4,17.72,SSW,193,3.6,6.3,30,0.00,,,0.00,VWS V14.01,2013-10-05 14:48:00,
2013-10-05 09:53:00,50.7,20.4,17.72,West,281,2.7,6.3,30,0.00,,,0.00,VWS V14.01,2013-10-05 14:53:00,
2013-10-05 09:58:00,50.4,20.1,17.72,WNW,301,2.2,4.9,30,0.00,,,0.00,VWS V14.01,2013-10-05 14:58:00,
2013-10-05 10:03:00,50.2,20.0,17.72,SSW,200,2.7,6.3,30,0.00,,,0.00,VWS V14.01,2013-10-05 15:03:00,
2013-10-05 10:08:00,50.2,20.0,17.72,North,0,2.7,6.3,30,0.00,,,0.00,VWS V14.01,2013-10-05 15:08:00,
2013-10-05 10:13:00,50.4,20.1,17.72,SSE,163,2.7,5.8,30,0.00,,,0.00,VWS V14.01,2013-10-05 15:13:00,
2013-10-05 10:18:00,50.7,20.4,17.72,WNW,283,4.0,4.9,30,0.00,,,0.00,VWS V14.01,2013-10-05 15:18:00,
2013-10-05 10:23:00,51.1,20.8,17.72,SSW,210,2.7,7.2,30,0.00,,,0.00,VWS V14.01,2013-10-05 15:23:00,
2013-10-05 10:28:00,51.1,20.8,17.72,SSW,205,5.8,5.8,30,0.00,,,0.00,VWS V14.01,2013-10-05 15:28:00,
2013-10-05 10:33:00,51.1,20.8,17.72,WNW,282,3.6,4.0,30,0.00,,,1.06,VWS V14.01,2013-10-05 15:33:00,
2013-10-05 10:38:00,51.1,20.8,17.72,WNW,288,0.0,3.6,30,0.00,,,1.06,VWS V14.01,2013-10-05 15:38:00,
2013-10-05 10:43:00,51.1,20.8,17.72,SW,219,4.9,4.9,30,0.00,,,0.00,VWS V14.01,2013-10-05 15:43:00,
2013-10-05 10:48:00,52.3,21.0,17.72,NW,307,2.7,4.9,29,0.00,,,0.00,VWS V14.01,2013-10-05 15:48:00,
2013-10-05 10:53:00,52.2,20.9,17.72,WNW,301,2.7,2.7,29,0.00,,,0.00,VWS V14.01,2013-10-05 15:53:00,
2013-10-05 10:58:00,52.2,20.9,17.72,NW,308,4.0,4.0,29,0.00,,,0.00,VWS V14.01,2013-10-05 15:58:00,
2013-10-05 11:03:00,52.2,20.9,17.72,SSW,213,2.7,5.8,29,0.00,,,0.00,VWS V14.01,2013-10-05 16:03:00,
2013-10-05 11:08:00,52.2,20.9,17.72,SW,223,5.4,5.4,29,0.00,,,0.00,VWS V14.01,2013-10-05 16:08:00,
2013-10-05 11:13:00,53.8,20.6,17.72,West,278,3.6,5.4,27,0.00,,,0.00,VWS V14.01,2013-10-05 16:13:00,
2013-10-05 11:17:00,53.2,21.0,17.72,NW,321,2.7,3.6,28,0.00,,,0.00,VWS V14.01,2013-10-05 16:17:00,
2013-10-05 11:22:00,53.4,21.1,17.72,South,189,3.1,4.9,28,0.00,,,0.00,VWS V14.01,2013-10-05 16:22:00,
2013-10-05 11:27:00,54.9,21.5,17.72,NW,309,3.6,3.6,27,0.00,,,1.06,VWS V14.01,2013-10-05 16:27:00,
2013-10-05 11:32:00,55.8,22.3,17.72,NE,48,3.6,3.6,27,0.00,,,0.00,VWS V14.01,2013-10-05 16:32:00,
2013-10-05 11:37:00,55.6,21.3,17.72,SE,131,4.0,4.0,26,0.00,,,0.00,VWS V14.01,2013-10-05 16:37:00,
2013-10-05 11:42:00,55.4,22.0,17.72,WNW,288,4.0,5.8,27,0.00,,,0.00,VWS V14.01,2013-10-05 16:42:00,
2013-10-05 11:47:00,54.7,21.4,17.72,NNW,329,2.7,4.0,27,0.00,,,0.00,VWS V14.01,2013-10-05 16:47:00,
2013-10-05 11:52:00,54.7,21.4,17.72,SW,229,3.1,4.0,27,0.00,,,0.00,VWS V14.01,2013-10-05 16:52:00,
2013-10-05 11:57:00,56.7,23.1,17.72,SE,141,3.6,3.6,27,0.00,,,0.00,VWS V14.01,2013-10-05 16:57:00,
2013-10-05 12:02:00,57.7,22.2,17.72,South,185,5.4,5.4,25,0.00,,,1.06,VWS V14.01,2013-10-05 17:02:00,
2013-10-05 12:07:00,58.5,22.8,17.72,NW,318,2.7,8.1,25,0.00,,,0.00,VWS V14.01,2013-10-05 17:07:00,
2013-10-05 12:12:00,59.0,23.2,17.72,South,178,4.0,4.9,25,0.00,,,0.00,VWS V14.01,2013-10-05 17:12:00,
2013-10-05 12:17:00,59.0,23.2,17.72,SSE,156,2.7,4.0,25,0.00,,,0.00,VWS V14.01,2013-10-05 17:17:00,
2013-10-05 12:22:00,59.2,22.4,17.72,SE,146,5.8,5.8,24,0.00,,,0.00,VWS V14.01,2013-10-05 17:22:00,
2013-10-05 12:27:00,59.7,22.9,17.72,SSE,162,4.9,8.1,24,0.00,,,0.00,VWS V14.01,2013-10-05 17:27:00,
2013-10-05 12:32:00,59.7,22.9,17.72,NNW,333,2.7,4.9,24,0.00,,,0.00,VWS V14.01,2013-10-05 17:32:00,
2013-10-05 12:37:00,60.1,23.2,17.72,SSE,153,5.4,5.4,24,0.00,,,0.00,VWS V14.01,2013-10-05 17:37:00,
2013-10-05 12:42:00,60.1,23.2,17.72,WNW,300,2.7,5.8,24,0.00,,,0.00,VWS V14.01,2013-10-05 17:42:00,
2013-10-05 12:47:00,60.4,23.5,17.72,NW,323,2.7,2.7,24,0.00,,,0.00,VWS V14.01,2013-10-05 17:47:00,
2013-10-05 12:52:00,60.4,23.5,17.72,South,172,5.4,5.4,24,0.00,,,0.00,VWS V14.01,2013-10-05 17:52:00,
2013-10-05 12:57:00,60.4,23.5,17.72,WNW,294,5.4,5.4,24,0.00,,,0.00,VWS V14.01,2013-10-05 17:57:00,
2013-10-05 13:02:00,61.2,24.1,17.72,SSW,210,3.6,7.6,24,0.00,,,0.00,VWS V14.01,2013-10-05 18:02:00,
2013-10-05 13:07:00,61.2,24.1,17.72,WSW,243,2.7,3.6,24,0.00,,,0.00,VWS V14.01,2013-10-05 18:07:00,
2013-10-05 13:12:00,61.9,24.7,17.72,West,273,4.0,5.4,24,0.00,,,0.00,VWS V14.01,2013-10-05 18:12:00,
2013-10-05 13:17:00,61.7,24.6,17.72,SW,230,2.7,4.0,24,0.00,,,0.00,VWS V14.01,2013-10-05 18:17:00,
2013-10-05 13:22:00,62.1,24.9,17.72,West,265,7.6,7.6,24,0.00,,,0.00,VWS V14.01,2013-10-05 18:22:00,
2013-10-05 13:27:00,62.2,25.0,17.72,SSW,212,4.9,7.6,24,0.00,,,0.00,VWS V14.01,2013-10-05 18:27:00,
2013-10-05 13:32:00,62.2,25.0,17.72,WNW,283,4.9,4.9,24,0.00,,,0.00,VWS V14.01,2013-10-05 18:32:00,
2013-10-05 13:37:00,63.1,24.8,17.72,WNW,285,3.1,7.6,23,0.00,,,0.00,VWS V14.01,2013-10-05 18:37:00,
2013-10-05 13:42:00,63.1,24.8,17.72,South,190,6.3,6.3,23,0.00,,,0.00,VWS V14.01,2013-10-05 18:42:00,
2013-10-05 13:47:00,63.3,24.9,17.72,South,188,4.0,8.3,23,0.00,,,1.06,VWS V14.01,2013-10-05 18:47:00,
2013-10-05 13:52:00,63.1,24.8,17.72,NW,307,2.7,6.7,23,0.00,,,0.00,VWS V14.01,2013-10-05 18:52:00,
2013-10-05 13:57:00,63.3,24.9,17.72,SSE,165,5.4,6.3,23,0.00,,,1.06,VWS V14.01,2013-10-05 18:57:00,
2013-10-05 14:02:00,62.8,24.5,17.72,South,176,5.4,5.4,23,0.00,,,0.00,VWS V14.01,2013-10-05 19:02:00,
2013-10-05 14:07:00,62.8,24.5,17.72,West,265,2.7,5.4,23,0.00,,,0.00,VWS V14.01,2013-10-05 19:07:00,
2013-10-05 14:12:00,62.8,24.5,17.72,South,170,3.6,5.4,23,0.00,,,0.00,VWS V14.01,2013-10-05 19:12:00,
2013-10-05 14:17:00,62.8,24.5,17.72,WNW,293,5.4,5.4,23,0.00,,,0.00,VWS V14.01,2013-10-05 19:17:00,
2013-10-05 14:22:00,62.4,25.2,17.72,West,264,3.1,5.4,24,0.00,,,0.00,VWS V14.01,2013-10-05 19:22:00,
2013-10-05 14:27:00,62.4,25.2,17.72,SSW,196,9.6,9.6,24,0.00,,,0.00,VWS V14.01,2013-10-05 19:27:00,
2013-10-05 14:32:00,62.6,24.3,17.72,SSW,212,3.1,9.6,23,0.00,,,0.00,VWS V14.01,2013-10-05 19:32:00,
2013-10-05 14:37:00,62.4,25.2,17.72,NW,305,4.9,4.9,24,0.00,,,0.00,VWS V14.01,2013-10-05 19:37:00,
2013-10-05 14:42:00,62.4,25.2,17.72,SE,137,3.6,8.7,24,0.00,,,0.00,VWS V14.01,2013-10-05 19:42:00,
2013-10-05 14:47:00,62.2,25.0,17.72,WNW,292,4.0,7.6,24,0.00,,,0.00,VWS V14.01,2013-10-05 19:47:00,
2013-10-05 14:52:00,62.2,25.0,17.72,WNW,285,5.8,5.8,24,0.00,,,1.06,VWS V14.01,2013-10-05 19:52:00,
2013-10-05 14:57:00,62.2,25.0,17.72,ENE,63,5.8,5.8,24,0.00,,,1.06,VWS V14.01,2013-10-05 19:57:00,
2013-10-05 15:02:00,62.2,25.0,17.72,SW,224,6.3,6.3,24,0.00,,,0.00,VWS V14.01,2013-10-05 20:02:00,
2013-10-05 15:07:00,62.6,24.3,17.72,SW,234,3.6,6.3,23,0.00,,,1.06,VWS V14.01,2013-10-05 20:07:00,
2013-10-05 15:12:00,62.1,24.9,17.72,WNW,290,4.9,7.6,24,0.00,,,1.06,VWS V14.01,2013-10-05 20:12:00,
2013-10-05 15:17:00,61.5,24.4,17.72,South,178,5.8,5.8,24,0.00,,,0.00,VWS V14.01,2013-10-05 20:17:00,
2013-10-05 15:22:00,60.6,21.6,17.72,SW,214,7.2,9.6,22,0.00,,,1.06,VWS V14.01,2013-10-05 20:22:00,
2013-10-05 15:27:00,60.6,21.6,17.72,WNW,285,5.4,7.2,22,0.00,,,0.00,VWS V14.01,2013-10-05 20:27:00,
2013-10-05 15:32:00,60.4,23.5,17.72,West,263,2.2,5.4,24,0.00,,,0.00,VWS V14.01,2013-10-05 20:32:00,
2013-10-05 15:37:00,60.4,21.4,17.72,WSW,245,2.7,3.6,22,0.00,,,0.00,VWS V14.01,2013-10-05 20:37:00,
2013-10-05 15:42:00,60.1,23.2,17.72,NW,325,5.8,5.8,24,0.00,,,0.00,VWS V14.01,2013-10-05 20:42:00,
2013-10-05 15:47:00,59.2,20.4,17.72,WNW,292,3.6,6.3,22,0.00,,,1.06,VWS V14.01,2013-10-05 20:47:00,
2013-10-05 15:52:00,59.2,20.4,17.72,SW,227,3.6,3.6,22,0.00,,,1.06,VWS V14.01,2013-10-05 20:52:00,
2013-10-05 15:57:00,57.9,19.3,17.72,West,263,5.8,8.7,22,0.00,,,1.06,VWS V14.01,2013-10-05 20:57:00,
2013-10-05 16:02:00,57.9,19.3,17.72,SSW,207,7.2,7.2,22,0.00,,,0.00,VWS V14.01,2013-10-05 21:02:00,
2013-10-05 16:07:00,57.7,21.2,17.72,South,189,2.7,8.1,24,0.00,,,0.00,VWS V14.01,2013-10-05 21:07:00,
2013-10-05 16:12:00,57.9,21.4,17.72,West,280,3.6,6.3,24,0.00,,,0.00,VWS V14.01,2013-10-05 21:12:00,
2013-10-05 16:17:00,57.7,21.2,17.72,South,187,3.6,3.6,24,0.00,,,0.00,VWS V14.01,2013-10-05 21:17:00,
2013-10-05 16:22:00,57.6,19.0,17.72,NW,314,5.8,5.8,22,0.00,,,0.00,VWS V14.01,2013-10-05 21:22:00,
2013-10-05 16:27:00,57.6,19.0,17.72,ESE,113,3.1,5.8,22,0.00,,,0.00,VWS V14.01,2013-10-05 21:27:00,
2013-10-05 16:32:00,57.6,19.0,17.72,WNW,298,4.0,4.0,22,0.00,,,0.00,VWS V14.01,2013-10-05 21:32:00,
2013-10-05 16:37:00,57.6,19.0,17.72,West,280,8.3,8.3,22,0.00,,,0.00,VWS V14.01,2013-10-05 21:37:00,
2013-10-05 16:42:00,57.0,21.6,17.72,SW,221,2.7,9.6,25,0.00,,,1.06,VWS V14.01,2013-10-05 21:42:00,
2013-10-05 16:47:00,57.0,21.6,17.72,SSE,159,4.0,7.6,25,0.00,,,0.00,VWS V14.01,2013-10-05 21:47:00,
2013-10-05 16:52:00,57.0,21.6,17.72,East,87,7.6,7.6,25,0.00,,,0.00,VWS V14.01,2013-10-05 21:52:00,
2013-10-05 16:57:00,57.2,20.8,17.72,ESE,118,5.8,7.6,24,0.00,,,0.00,VWS V14.01,2013-10-05 21:57:00,
2013-10-05 17:02:00,57.2,20.8,17.72,NNW,327,5.4,5.8,24,0.00,,,0.00,VWS V14.01,2013-10-05 22:02:00,
2013-10-05 17:07:00,57.4,18.9,17.72,SE,140,3.1,5.4,22,0.00,,,1.06,VWS V14.01,2013-10-05 22:07:00,
2013-10-05 17:12:00,57.6,19.0,17.72,South,183,5.4,5.4,22,0.00,,,1.06,VWS V14.01,2013-10-05 22:12:00,
2013-10-05 17:16:00,57.6,19.0,17.72,SSE,163,2.7,8.1,22,0.00,,,0.00,VWS V14.01,2013-10-05 22:16:00,
2013-10-05 17:21:00,57.6,19.0,17.72,SE,143,4.5,6.3,22,0.00,,,1.06,VWS V14.01,2013-10-05 22:21:00,
2013-10-05 17:27:00,57.0,18.6,17.72,South,170,5.8,6.3,22,0.00,,,0.00,VWS V14.01,2013-10-05 22:27:00,
2013-10-05 17:32:00,57.0,18.6,17.72,SSW,212,4.0,5.8,22,0.00,,,0.00,VWS V14.01,2013-10-05 22:32:00,
2013-10-05 17:37:00,57.0,18.6,17.72,ENE,78,6.3,6.3,22,0.00,,,0.00,VWS V14.01,2013-10-05 22:37:00,
2013-10-05 17:41:00,57.0,18.6,17.72,WNW,292,3.1,6.3,22,0.00,,,1.06,VWS V14.01,2013-10-05 22:41:00,
2013-10-05 17:46:00,57.0,18.6,17.72,WSW,239,4.0,4.0,22,0.00,,,0.00,VWS V14.01,2013-10-05 22:46:00,
2013-10-05 17:51:00,55.8,20.5,17.72,WSW,248,2.2,4.0,25,0.00,,,0.00,VWS V14.01,2013-10-05 22:51:00,
2013-10-05 17:56:00,55.8,20.5,17.72,NW,305,3.6,3.6,25,0.00,,,1.06,VWS V14.01,2013-10-05 22:56:00,
2013-10-05 18:01:00,55.0,19.9,17.72,West,262,3.6,3.6,25,0.00,,,0.00,VWS V14.01,2013-10-05 23:01:00,
2013-10-05 18:06:00,54.7,19.6,17.72,East,91,0.0,3.6,25,0.00,,,0.00,VWS V14.01,2013-10-05 23:06:00,
2013-10-05 18:11:00,54.7,19.6,17.72,SSW,209,3.1,3.1,25,0.00,,,0.00,VWS V14.01,2013-10-05 23:11:00,
2013-10-05 18:16:00,54.7,19.6,17.72,WNW,283,3.6,4.0,25,0.00,,,0.00,VWS V14.01,2013-10-05 23:16:00,
2013-10-05 18:21:00,54.7,19.6,17.72,SSW,192,3.6,4.0,25,0.00,,,0.00,VWS V14.01,2013-10-05 23:21:00,
2013-10-05 18:26:00,54.7,19.6,17.72,South,181,3.1,3.6,25,0.00,,,0.00,VWS V14.01,2013-10-05 23:26:00,
2013-10-05 18:31:00,54.7,19.6,17.72,WSW,245,2.7,3.6,25,0.00,,,0.00,VWS V14.01,2013-10-05 23:31:00,
2013-10-05 18:36:00,54.7,19.6,17.72,West,279,3.6,3.6,25,0.00,,,0.00,VWS V14.01,2013-10-05 23:36:00,
2013-10-05 18:41:00,54.7,19.6,17.72,NNW,343,5.4,5.4,25,0.00,,,0.00,VWS V14.01,2013-10-05 23:41:00,
2013-10-05 18:46:00,53.6,18.6,17.72,WNW,288,0.0,5.4,25,0.00,,,0.00,VWS V14.01,2013-10-05 23:46:00,
2013-10-05 18:51:00,53.6,18.6,17.72,NW,307,3.1,3.1,25,0.00,,,0.00,VWS V14.01,2013-10-05 23:51:00,
2013-10-05 18:56:00,53.6,18.6,17.72,SSE,153,4.0,4.0,25,0.00,,,0.00,VWS V14.01,2013-10-05 23:56:00,
2013-10-05 19:01:00,53.1,19.1,17.72,SSE,157,4.0,4.0,26,0.00,,,0.00,VWS V14.01,2013-10-06 00:01:00,
2013-10-05 19:06:00,53.1,19.1,17.72,SSE,157,4.0,4.0,26,0.00,,,0.00,VWS V14.01,2013-10-06 00:06:00,
2013-10-05 19:11:00,52.9,19.0,17.72,WNW,299,4.9,4.9,26,0.00,,,1.06,VWS V14.01,2013-10-06 00:11:00,
2013-10-05 19:16:00,52.9,19.0,17.72,SE,127,2.7,4.9,26,0.00,,,0.00,VWS V14.01,2013-10-06 00:16:00,
2013-10-05 19:21:00,52.9,19.0,17.72,South,172,4.0,5.4,26,0.00,,,1.06,VWS V14.01,2013-10-06 00:21:00,
2013-10-05 19:26:00,52.0,18.2,17.72,SW,229,2.7,4.0,26,0.00,,,0.00,VWS V14.01,2013-10-06 00:26:00,
2013-10-05 19:31:00,51.6,17.9,17.72,ESE,114,2.7,3.6,26,0.00,,,1.06,VWS V14.01,2013-10-06 00:31:00,
2013-10-05 19:36:00,51.6,17.9,17.72,South,172,4.0,4.0,26,0.00,,,1.06,VWS V14.01,2013-10-06 00:36:00,
2013-10-05 19:41:00,51.3,17.6,17.72,WSW,255,2.2,4.0,26,0.00,,,0.00,VWS V14.01,2013-10-06 00:41:00,
2013-10-05 19:46:00,51.3,17.6,17.72,SW,214,2.7,3.6,26,0.00,,,0.00,VWS V14.01,2013-10-06 00:46:00,
2013-10-05 19:51:00,50.9,17.2,17.72,SW,223,0.0,2.7,26,0.00,,,0.00,VWS V14.01,2013-10-06 00:51:00,
2013-10-05 19:56:00,50.4,16.8,17.72,SSW,198,2.2,2.2,26,0.00,,,0.00,VWS V14.01,2013-10-06 00:56:00,
2013-10-05 20:01:00,50.4,16.8,17.72,South,191,0.0,4.0,26,0.00,,,0.00,VWS V14.01,2013-10-06 01:01:00,
2013-10-05 20:06:00,50.4,16.8,17.72,West,263,2.2,2.2,26,0.00,,,1.06,VWS V14.01,2013-10-06 01:06:00,
2013-10-05 20:11:00,50.4,16.8,17.72,South,184,2.7,2.7,26,0.00,,,0.00,VWS V14.01,2013-10-06 01:11:00,
2013-10-05 20:16:00,50.4,16.8,17.72,SSW,200,2.2,3.1,26,0.00,,,1.06,VWS V14.01,2013-10-06 01:16:00,
2013-10-05 20:21:00,50.4,16.8,17.72,SSW,209,0.0,2.2,26,0.00,,,0.00,VWS V14.01,2013-10-06 01:21:00,
2013-10-05 20:26:00,50.4,16.8,17.72,South,190,0.0,0.0,26,0.00,,,0.00,VWS V14.01,2013-10-06 01:26:00,
2013-10-05 20:31:00,50.5,17.8,17.72,SW,233,0.0,2.2,27,0.00,,,1.06,VWS V14.01,2013-10-06 01:31:00,
2013-10-05 20:36:00,50.5,17.8,17.72,SW,236,2.7,2.7,27,0.00,,,0.00,VWS V14.01,2013-10-06 01:36:00,
2013-10-05 20:41:00,50.5,17.8,17.72,South,184,2.7,2.7,27,0.00,,,0.00,VWS V14.01,2013-10-06 01:41:00,
2013-10-05 20:46:00,50.5,17.8,17.72,SSW,192,2.7,3.1,27,0.00,,,0.00,VWS V14.01,2013-10-06 01:46:00,
2013-10-05 20:51:00,50.5,17.8,17.72,SSW,192,2.7,2.7,27,0.00,,,0.00,VWS V14.01,2013-10-06 01:51:00,
2013-10-05 20:56:00,50.5,17.8,17.72,WNW,290,0.0,0.0,27,0.00,,,0.00,VWS V14.01,2013-10-06 01:56:00,
2013-10-05 21:01:00,50.2,17.5,17.72,South,181,0.0,2.2,27,0.00,,,0.00,VWS V14.01,2013-10-06 02:01:00,
2013-10-05 21:06:00,49.8,17.2,17.72,South,185,3.1,3.1,27,0.00,,,0.00,VWS V14.01,2013-10-06 02:06:00,
2013-10-05 21:11:00,49.8,17.2,17.72,SSW,212,4.0,4.0,27,0.00,,,0.00,VWS V14.01,2013-10-06 02:11:00,
2013-10-05 21:16:00,49.8,17.2,17.72,South,184,2.7,4.0,27,0.00,,,0.00,VWS V14.01,2013-10-06 02:16:00,
2013-10-05 21:21:00,49.8,17.2,17.72,South,185,0.0,3.6,27,0.00,,,0.00,VWS V14.01,2013-10-06 02:21:00,
2013-10-05 21:26:00,49.6,17.9,17.72,SE,133,3.1,3.1,28,0.00,,,0.00,VWS V14.01,2013-10-06 02:26:00,
2013-10-05 21:31:00,49.6,17.9,17.72,South,183,4.9,4.9,28,0.00,,,1.06,VWS V14.01,2013-10-06 02:31:00,
2013-10-05 21:36:00,49.6,17.9,17.72,WNW,295,3.6,3.6,28,0.00,,,0.00,VWS V14.01,2013-10-06 02:36:00,
2013-10-05 21:41:00,49.6,17.9,17.72,West,266,4.9,4.9,28,0.00,,,0.00,VWS V14.01,2013-10-06 02:41:00,
2013-10-05 21:46:00,49.6,17.9,17.72,West,271,0.0,4.9,28,0.00,,,0.00,VWS V14.01,2013-10-06 02:46:00,
2013-10-05 21:51:00,49.8,18.0,17.72,South,189,0.0,2.2,28,0.00,,,1.06,VWS V14.01,2013-10-06 02:51:00,
2013-10-05 21:56:00,50.0,17.4,17.72,SSW,200,4.0,4.0,27,0.00,,,0.00,VWS V14.01,2013-10-06 02:56:00,
2013-10-05 22:01:00,50.0,17.4,17.72,SSW,208,3.1,4.0,27,0.00,,,1.06,VWS V14.01,2013-10-06 03:01:00,
2013-10-05 22:06:00,50.0,17.4,17.72,South,189,5.4,5.4,27,0.00,,,0.00,VWS V14.01,2013-10-06 03:06:00,
2013-10-05 22:11:00,50.0,17.4,17.72,WNW,294,2.7,5.4,27,0.00,,,0.00,VWS V14.01,2013-10-06 03:11:00,
2013-10-05 22:16:00,50.0,17.4,17.72,SW,224,4.0,4.0,27,0.00,,,0.00,VWS V14.01,2013-10-06 03:16:00,
2013-10-05 22:21:00,50.0,17.4,17.72,WNW,289,2.7,6.3,27,0.00,,,0.00,VWS V14.01,2013-10-06 03:21:00,
2013-10-05 22:26:00,50.0,17.4,17.72,SSW,203,4.0,4.0,27,0.00,,,1.06,VWS V14.01,2013-10-06 03:26:00,
2013-10-05 22:31:00,50.0,17.4,17.72,South,177,3.1,7.6,27,0.00,,,1.06,VWS V14.01,2013-10-06 03:31:00,
2013-10-05 22:36:00,50.0,17.4,17.72,SW,215,2.2,4.5,27,0.00,,,0.00,VWS V14.01,2013-10-06 03:36:00,
2013-10-05 22:41:00,49.8,18.0,17.72,SSE,164,3.6,3.6,28,0.00,,,0.00,VWS V14.01,2013-10-06 03:41:00,
2013-10-05 22:46:00,49.8,18.0,17.72,WNW,288,2.2,3.6,28,0.00,,,0.00,VWS V14.01,2013-10-06 03:46:00,
2013-10-05 22:51:00,49.8,18.0,17.72,NNW,343,0.0,2.2,28,0.00,,,0.00,VWS V14.01,2013-10-06 03:51:00,
2013-10-05 22:56:00,49.6,17.9,17.72,WSW,254,2.2,2.2,28,0.00,,,0.00,VWS V14.01,2013-10-06 03:56:00,
2013-10-05 23:01:00,49.6,17.9,17.72,SW,216,0.0,2.2,28,0.00,,,0.00,VWS V14.01,2013-10-06 04:01:00,
2013-10-05 23:06:00,49.6,17.9,17.72,WNW,283,3.1,3.6,28,0.00,,,1.06,VWS V14.01,2013-10-06 04:06:00,
2013-10-05 23:11:00,49.6,17.9,17.72,West,264,8.3,8.3,28,0.00,,,0.00,VWS V14.01,2013-10-06 04:11:00,
2013-10-05 23:16:00,49.5,17.7,17.72,SSE,164,3.6,8.3,28,0.00,,,1.06,VWS V14.01,2013-10-06 04:16:00,
2013-10-05 23:21:00,49.5,17.7,17.72,SSE,164,5.4,5.4,28,0.00,,,1.06,VWS V14.01,2013-10-06 04:21:00,
2013-10-05 23:26:00,49.5,17.7,17.72,SE,144,3.6,5.4,28,0.00,,,0.00,VWS V14.01,2013-10-06 04:26:00,
2013-10-05 23:31:00,49.5,17.7,17.72,ENE,60,3.1,3.6,28,0.00,,,0.00,VWS V14.01,2013-10-06 04:31:00,
2013-10-05 23:36:00,49.5,17.7,17.72,South,171,5.8,5.8,28,0.00,,,0.00,VWS V14.01,2013-10-06 04:36:00,
2013-10-05 23:41:00,49.1,17.4,17.72,South,183,3.6,5.8,28,0.00,,,0.00,VWS V14.01,2013-10-06 04:41:00,
2013-10-05 23:46:00,49.1,17.4,17.72,SW,217,3.1,3.6,28,0.00,,,1.06,VWS V14.01,2013-10-06 04:46:00,
2013-10-05 23:51:00,48.9,17.3,17.72,SE,145,4.9,4.9,28,0.00,,,0.00,VWS V14.01,2013-10-06 04:51:00,
2013-10-05 23:56:00,48.9,17.3,17.72,West,269,3.6,4.9,28,0.00,,,0.00,VWS V14.01,2013-10-06 04:56:00,